Regional Weather Roundup
Issued by NWS Charleston, WV

Home | Current Version | Previous Version | Graphics & Text | Print | Product List | Glossary On
Versions: 1 2 3 4 5 6 7 8 9 10 11 12 13 14 15 16 17 18 19 20 21 22 23 24 25 26 27 28 29 30 31 32 33 34 35 36 37 38 39 40 41 42 43 44 45 46 47 48 49 50
000
ASUS41 KRLX 031910
RWRRLX
West Virginia Regional Weather Roundup
National Weather Service Charleston WV
300 PM EDT THU SEP 03 2015

Note: "fair" indicates few or no clouds below 12,000 feet with no
significant weather and/or obstructions to visibility.

WVZ003-032000-
Northern Panhandle of West Virginia

CITY           SKY/WX    TMP DP  RH WIND       PRES   REMARKS
WHEELING       MOSUNNY   87  66  49 N3        29.96F
$$

WVZ009-032000-
Northwest West Virginia

CITY           SKY/WX    TMP DP  RH WIND       PRES   REMARKS
PARKERSBURG    SUNNY     84  69  60 VRB6      30.00F
$$

WVZ006-032000-
Western West Virginia

CITY           SKY/WX    TMP DP  RH WIND       PRES   REMARKS
HUNTINGTON     MOSUNNY   90  66  45 VRB3      29.98F
$$

WVZ015-032000-
West Central West Virginia

CITY           SKY/WX    TMP DP  RH WIND       PRES   REMARKS
CHARLESTON     MOSUNNY   85  65  51 CALM      29.99F
$$

WVZ022-031-032000-
North Central West Virginia

CITY           SKY/WX    TMP DP  RH WIND       PRES   REMARKS
CLARKSBURG     PTSUNNY   82  69  64 W7        29.99F
MORGANTOWN     PTSUNNY   85  65  51 CALM      29.99F
$$

WVZ025-035-042-045-032000-
Southern West Virginia

CITY           SKY/WX    TMP DP  RH WIND       PRES   REMARKS
BECKLEY        MOSUNNY   80  65  59 NW9       30.08F
LOGAN          PTSUNNY   84  68  58 CALM      30.03F
BLUEFIELD      PTSUNNY   84  63  49 NW9       30.10F
LEWISBURG      PTSUNNY   85  61  44 NW8       30.04F
$$

WVZ047-032000-
Northern Mountains of West Virginia

CITY           SKY/WX    TMP DP  RH WIND       PRES   REMARKS
ELKINS         PTSUNNY   82  65  56 MISG      30.03F
$$

WVZ052-032000-
Eastern Panhandle of West Virginia

CITY           SKY/WX    TMP DP  RH WIND       PRES   REMARKS
MARTINSBURG    MOSUNNY   93  63  36 N6        29.91F
PETERSBURG     HVY RAIN  74  65  73 SE8G26    29.96F
$$



USA.gov is the U.S. government's official web portal to all federal, state and local government web resources and services.